Location: Saluda
(35.2377°N, 82.3468°W)
Time: 15:44:56
(UTC+00:00)

SR - Pass Details

Date: 06 October 2022
Orbit: 577 x 875 km, 66.7° (Epoch: 28 November)

Event Time Altitude Azimuth Distance (km) Brightness Sun altitude
Rises 09:27:45 0° 347° (NNW) 3,302 ? -25.3°
Reaches altitude 10° 09:30:58 10° 4° (N) 2,311 ? -24.6°
Maximum altitude 09:34:40 19° 49° (NE) 1,705 ? -23.9°
Drops below altitude 10° 09:38:09 10° 94° (E) 2,161 ? -23.2°
Sets 09:41:01 0° 113° (ESE) 3,015 ? -22.6°
